DECAYED

YUNHAI 1-02 DEB, 48192 (Decayed)

Orbit data source: Space-Track

YUNHAI 1-02 DEB, 48192 was space debris in SSO originally from a launch on Wed, 25 Sep 2019 UTC launched from the Jiuquan Satellite Launch Center, China (JSC). Debris objects in space refer to the collection of defunct objects orbiting the Earth. Examples of debris include non-operational satellites, rocket bodies, and fragments generated from explosions, collisions, or faulty payload assembly.

Loading next visibility...
Identifier
48192, 2019-063L
Orbit
Decayed
Country
Flag of CNCN / PRC
Related business
Manufacturer
Unknown
Mission
Decayed spacecraft
Bus & Motor
Unknown
Mass
Unknown
Launch date (UTC)
2019-09-25 (7 years ago)
Launch vehicle
Unknown
Launch site
Jiuquan Satellite Launch Center, China (JSC)
Object type
Payload
Rocket body
Debris
Shape & HBR
Unknown shape, 0.1 m
Radar Cross Section
Small (<0.1 m²)

Expand to show TLE details & history
Last TLE update: 1 year ago

TLE from 1 year ago
0 YUNHAI 1-02 DEB
1 48192U 19063L   24366.36479160  .01670478  00000-0  35321-1 0  9998
2 48192  98.4446  55.7031 0006046 337.9505  22.1478 15.42247985 20047
Epoch: 2024-12-31T08:45Z
TLE epoch observation values (Epoch: 2024-12-31T08:45:17.994Z)
Latitude
-0.00001°
Longitude
-175.89535°
Altitude
438.746 km
Speed
7.651 km/s
True Right ascension
03h 42m 48s
True Declination
0° 00' 00"
Sunlit
Object was in full shadow at epoch
Visualization orbit readout
Latitude
Unknown
Longitude
Unknown
Altitude
Unknown
Speed
Unknown
Apparent Right ascension
Unknown
Apparent Declination
Unknown
Sunlit
N/A
Visualization observer readout
Local Sidereal Time
21:25:48
Azimuth
Unknown
Elevation
Unknown
Doppler factor
Unknown
Orbital elements
Apogee altitude
440.581 km
Perigee altitude
432.34 km
Semi-major axis
6,814.598 km
Eccentricity
0.0006
Inclination
98.4446°
RAAN
55.7031°
Arg. of periapsis
337.9505°
True anomaly
22.17394°
Mean anomaly
22.1478°
Eccentric anomaly
22.16087°
Mean motion
3.85818 °/min
Orbital period
93.31 mins
BSTAR
0.035321

Documentation

Showing up to 5 results
|